When you browse on this site, cookies collect data to enhance your experience and personalize the content and advertising you see.
Visit our Privacy Policy to learn more. By continuing to use the site, you agree to this use of cookies and data.
  • In Hungary
  • List of Countries
  • For 7 days
  • Water Temperature
  • Satellite Maps
  • Weather Map
  • News
  • Weather Widgets
  • user-avatar
    Login

    Hourly Weather Bellshill

    Today, 20 March, Wednesday

    Time Temperature Precipitation Wind Pressure Humidity
    00:00 +8°C° 0 mm 4 mps 760 mmHg 94%
    01:00 +8°C° 0.1 mm 4 mps 760 mmHg 94%
    02:00 +8°C° 0.1 mm 4 mps 760 mmHg 94%
    03:00 +8°C° 0.1 mm 4 mps 761 mmHg 95%
    04:00 +10°C° 0.2 mm 4 mps 761 mmHg 95%
    05:00 +10°C° 0.2 mm 4 mps 761 mmHg 95%
    06:00 +8°C° 0 mm 4 mps 761 mmHg 95%
    07:00 +8°C° 0.1 mm 4 mps 761 mmHg 94%
    08:00 +10°C° 0.1 mm 4 mps 762 mmHg 94%
    09:00 +10°C° 0.1 mm 4 mps 762 mmHg 93%
    10:00 +10°C° 0 mm 4 mps 762 mmHg 92%
    11:00 +10°C° 0 mm 5 mps 762 mmHg 90%
    12:00 +10°C° 0 mm 5 mps 762 mmHg 88%
    13:00 +10°C° 0 mm 5 mps 762 mmHg 88%
    14:00 +11°C° 0 mm 6 mps 761 mmHg 88%
    15:00 +11°C° 0 mm 6 mps 761 mmHg 88%
    16:00 +11°C° 0.1 mm 6 mps 761 mmHg 88%
    17:00 +11°C° 0.1 mm 6 mps 761 mmHg 89%
    18:00 +11°C° 0.1 mm 6 mps 761 mmHg 89%
    19:00 +11°C° 0.1 mm 7 mps 761 mmHg 89%
    20:00 +11°C° 0.1 mm 7 mps 761 mmHg 89%
    21:00 +11°C° 0.1 mm 7 mps 761 mmHg 89%
    22:00 +11°C° 0.1 mm 7 mps 761 mmHg 89%
    23:00 +11°C° 0.1 mm 6 mps 761 mmHg 89%

    Tomorrow, 21 March, Thursday

    Time Temperature Precipitation Wind Pressure Humidity
    00:00 +11°C° 0.1 mm 6 mps 761 mmHg 88%
    01:00 +10°C° 0.1 mm 6 mps 760 mmHg 88%
    02:00 +10°C° 0.1 mm 6 mps 760 mmHg 88%
    03:00 +10°C° 0.1 mm 6 mps 760 mmHg 88%
    04:00 +10°C° 0 mm 6 mps 760 mmHg 88%
    05:00 +9°C° 0 mm 6 mps 761 mmHg 89%
    06:00 +9°C° 0 mm 6 mps 761 mmHg 89%
    07:00 +10°C° 0 mm 6 mps 761 mmHg 87%
    08:00 +10°C° 0 mm 6 mps 761 mmHg 86%
    09:00 +10°C° 0 mm 7 mps 762 mmHg 84%
    10:00 +11°C° 0 mm 7 mps 762 mmHg 84%
    11:00 +11°C° 0 mm 7 mps 762 mmHg 84%
    12:00 +11°C° 0 mm 7 mps 762 mmHg 83%
    13:00 +11°C° 0 mm 7 mps 762 mmHg 83%
    14:00 +11°C° 0 mm 6 mps 762 mmHg 83%
    15:00 +11°C° 0 mm 6 mps 761 mmHg 82%
    16:00 +11°C° 0 mm 6 mps 761 mmHg 84%
    17:00 +10°C° 0 mm 6 mps 761 mmHg 85%
    18:00 +10°C° 0 mm 6 mps 761 mmHg 86%
    19:00 +10°C° 0 mm 6 mps 761 mmHg 87%
    20:00 +10°C° 0 mm 6 mps 760 mmHg 88%
    21:00 +10°C° 0 mm 6 mps 760 mmHg 88%
    22:00 +10°C° 0 mm 6 mps 760 mmHg 88%
    23:00 +10°C° 0 mm 6 mps 759 mmHg 88%

    Day after tomorrow, 22 March, Friday

    Time Temperature Precipitation Wind Pressure Humidity
    00:00 +10°C° 0 mm 7 mps 758 mmHg 88%
    01:00 +10°C° 0 mm 7 mps 758 mmHg 86%
    02:00 +9°C° 0 mm 8 mps 757 mmHg 85%
    03:00 +9°C° 0 mm 8 mps 756 mmHg 83%
    04:00 +9°C° 0.1 mm 8 mps 755 mmHg 82%
    05:00 +10°C° 0.1 mm 9 mps 754 mmHg 81%
    06:00 +10°C° 0.1 mm 9 mps 754 mmHg 80%
    07:00 +9°C° 0 mm 10 mps 753 mmHg 80%
    08:00 +8°C° 0 mm 10 mps 753 mmHg 79%
    09:00 +8°C° 0 mm 11 mps 752 mmHg 78%
    10:00 +8°C° 0.8 mm 11 mps 753 mmHg 80%
    11:00 +8°C° 0.8 mm 10 mps 753 mmHg 83%
    12:00 +8°C° 0.8 mm 10 mps 753 mmHg 85%
    13:00 +8°C° 0.6 mm 10 mps 754 mmHg 80%
    14:00 +7°C° 0.6 mm 9 mps 755 mmHg 74%
    15:00 +7°C° 0.6 mm 8 mps 756 mmHg 69%
    16:00 +6°C° 0 mm 7 mps 757 mmHg 68%
    17:00 +5°C° 0 mm 7 mps 758 mmHg 67%
    18:00 +4°C° 0 mm 6 mps 759 mmHg 67%
    19:00 +3°C° 0 mm 5 mps 760 mmHg 68%
    20:00 +3°C° 0 mm 5 mps 761 mmHg 68%
    21:00 +2°C° 0 mm 5 mps 762 mmHg 69%
    22:00 +3°C° 0 mm 4 mps 762 mmHg 70%
    23:00 +3°C° 0 mm 4 mps 763 mmHg 71%

    23 March, Saturday

    Time Temperature Precipitation Wind Pressure Humidity
    00:00 +1°C° 0 mm 4 mps 764 mmHg 72%
    01:00 +2°C° 0 mm 3 mps 764 mmHg 72%
    02:00 +2°C° 0 mm 3 mps 764 mmHg 71%
    03:00 +2°C° 0 mm 3 mps 765 mmHg 70%
    04:00 +2°C° 0 mm 3 mps 765 mmHg 72%
    05:00 +2°C° 0 mm 2 mps 765 mmHg 74%
    06:00 +2°C° 0 mm 2 mps 766 mmHg 77%
    07:00 +2°C° 0 mm 3 mps 766 mmHg 73%
    08:00 +4°C° 0 mm 3 mps 767 mmHg 70%
    09:00 +5°C° 0 mm 3 mps 767 mmHg 66%
    10:00 +5°C° 0.1 mm 4 mps 767 mmHg 65%
    11:00 +6°C° 0.1 mm 4 mps 767 mmHg 63%
    12:00 +7°C° 0.1 mm 4 mps 767 mmHg 61%
    13:00 +7°C° 0.1 mm 4 mps 767 mmHg 60%
    14:00 +7°C° 0.1 mm 4 mps 767 mmHg 60%
    15:00 +7°C° 0.1 mm 5 mps 766 mmHg 59%
    16:00 +6°C° 0 mm 4 mps 766 mmHg 62%
    17:00 +5°C° 0 mm 3 mps 766 mmHg 65%
    18:00 +4°C° 0 mm 3 mps 766 mmHg 68%
    19:00 +4°C° 0 mm 3 mps 766 mmHg 71%
    20:00 +3°C° 0 mm 3 mps 766 mmHg 75%
    21:00 +2°C° 0 mm 3 mps 766 mmHg 78%
    22:00 +2°C° 0 mm 3 mps 766 mmHg 80%
    23:00 +2°C° 0 mm 3 mps 765 mmHg 82%

    24 March, Sunday

    Time Temperature Precipitation Wind Pressure Humidity
    00:00 +1°C° 0 mm 4 mps 765 mmHg 84%
    01:00 +1°C° 0 mm 4 mps 765 mmHg 84%
    02:00 +1°C° 0 mm 4 mps 764 mmHg 84%
    03:00 +1°C° 0 mm 4 mps 764 mmHg 84%
    04:00 +2°C° 0 mm 5 mps 764 mmHg 83%
    05:00 +2°C° 0 mm 5 mps 763 mmHg 82%
    06:00 +2°C° 0 mm 6 mps 763 mmHg 80%
    07:00 +3°C° 0 mm 6 mps 763 mmHg 78%
    08:00 +4°C° 0 mm 7 mps 763 mmHg 76%
    09:00 +4°C° 0 mm 7 mps 763 mmHg 74%
    10:00 +5°C° 0.1 mm 8 mps 763 mmHg 74%
    11:00 +5°C° 0.1 mm 8 mps 763 mmHg 73%
    12:00 +6°C° 0.1 mm 9 mps 763 mmHg 73%
    13:00 +6°C° 0.1 mm 9 mps 763 mmHg 72%
    14:00 +6°C° 0.1 mm 9 mps 763 mmHg 70%
    15:00 +6°C° 0.1 mm 9 mps 762 mmHg 69%
    16:00 +6°C° 0 mm 8 mps 762 mmHg 70%
    17:00 +6°C° 0 mm 8 mps 763 mmHg 71%
    18:00 +5°C° 0 mm 7 mps 763 mmHg 73%
    19:00 +5°C° 0 mm 7 mps 763 mmHg 74%
    20:00 +5°C° 0 mm 6 mps 763 mmHg 76%
    21:00 +5°C° 0 mm 6 mps 764 mmHg 77%
    22:00 +5°C° 0.1 mm 6 mps 764 mmHg 79%
    23:00 +5°C° 0.1 mm 5 mps 764 mmHg 81%

    25 March, Monday

    Time Temperature Precipitation Wind Pressure Humidity
    00:00 +5°C° 0.1 mm 4 mps 764 mmHg 82%
    01:00 +5°C° 0.1 mm 4 mps 765 mmHg 83%
    02:00 +4°C° 0.1 mm 4 mps 765 mmHg 83%
    03:00 +4°C° 0.1 mm 3 mps 765 mmHg 84%
    04:00 +3°C° 0 mm 3 mps 765 mmHg 84%
    05:00 +3°C° 0 mm 3 mps 766 mmHg 85%
    06:00 +2°C° 0 mm 3 mps 766 mmHg 85%
    07:00 +3°C° 0 mm 3 mps 767 mmHg 80%
    08:00 +5°C° 0 mm 3 mps 767 mmHg 75%
    09:00 +6°C° 0 mm 4 mps 768 mmHg 70%
    10:00 +7°C° 0 mm 4 mps 768 mmHg 66%
    11:00 +8°C° 0 mm 4 mps 768 mmHg 63%
    12:00 +10°C° 0 mm 4 mps 768 mmHg 59%
    13:00 +10°C° 0 mm 4 mps 768 mmHg 59%
    14:00 +10°C° 0 mm 4 mps 768 mmHg 59%
    15:00 +10°C° 0 mm 4 mps 768 mmHg 59%
    16:00 +9°C° 0 mm 3 mps 769 mmHg 62%
    17:00 +8°C° 0 mm 3 mps 769 mmHg 66%
    18:00 +8°C° 0 mm 2 mps 769 mmHg 70%
    19:00 +8°C° 0 mm 1 mps 769 mmHg 73%
    20:00 +6°C° 0 mm 1 mps 770 mmHg 77%
    21:00 +5°C° 0 mm 1 mps 770 mmHg 81%
    22:00 +5°C° 0 mm 1 mps 770 mmHg 83%
    23:00 +5°C° 0 mm 1 mps 770 mmHg 85%
    Show more